Wreay, United Kingdom

8:55 AM BST on May 22, 2019 (GMT +0100)
Wreay

Weather History for 03222 - December, 2008

Change the Weather History Date:

Monday, December 1, 2008

  Actual Average Record
Temperature  
Mean Temperature 30 °F -  
Max Temperature 35 °F 42 °F - ()
Min Temperature 24 °F 36 °F - ()
Degree Days  
Heating Degree Days 36    
Moisture  
Dew Point 32 °F    
Average Humidity 100    
Maximum Humidity 100    
Minimum Humidity 100    
Precipitation  
Precipitation 0.00 in - - ()
Sea Level Pressure  
Sea Level Pressure 29.76 in    
Wind  
Wind Speed 3 mph ()    
Max Wind Speed 6 mph    
Max Gust Speed -    
Visibility 6.0 miles    
Events      
T = Trace of Precipitation, MM = Missing Value Source: Averaged Metar Reports

Daily Weather History Graph

Daily Weather History Graph

Search for Another Location

Airport or City:

Astronomy

Dec. 01, 2008 Rise Set
Actual Time 8:12 AM GMT 3:48 PM GMT
Civil Twilight 7:29 AM GMT 4:32 PM GMT
Nautical Twilight 6:42 AM GMT 5:18 PM GMT
Astronomical Twilight 5:59 AM GMT 6:02 PM GMT
Moon 11:34 AM GMT (12/1) 6:45 PM GMT (12/1)
Length of Visible Light 9h 03m
Length of Day
7h 35m
Waxing Crescent, 12% of the Moon is Illuminated
Dec 1
Waxing Crescent
Dec 5
First Quarter
Dec 12
Full
Dec 19
Last Quarter
Dec 27
New

Hourly Weather History & Observations

Time (GMT) Temp. Windchill Dew Point Humidity Pressure Visibility Wind Dir Wind Speed Gust Speed Precip Events Conditions
9:20 AM 24.8 °F - 24.8 °F 100% 29.74 in 5.0 mi SW 1.2 mph - N/A   Scattered Clouds
9:50 AM 26.6 °F - 26.6 °F 100% 29.71 in 5.0 mi Calm Calm - N/A   Scattered Clouds
10:20 AM 28.4 °F - 28.4 °F 100% 29.74 in 5.0 mi SSW 1.2 mph - N/A   Scattered Clouds
10:50 AM 28.4 °F - 28.4 °F 100% 29.74 in 5.6 mi SSW 1.2 mph - N/A   Scattered Clouds
11:20 AM 32.0 °F 28.7 °F 32.0 °F 100% 29.71 in 6.2 mi WSW 3.5 mph - N/A   Partly Cloudy
11:50 AM 32.0 °F 28.7 °F 32.0 °F 100% 29.71 in 6.2 mi WSW 3.5 mph - N/A   Scattered Clouds
12:20 PM 32.0 °F 28.7 °F 32.0 °F 100% 29.74 in 6.2 mi West 3.5 mph - N/A   Scattered Clouds
12:50 PM 33.8 °F 30.8 °F 33.8 °F 100% 29.74 in 6.2 mi NW 3.5 mph - N/A   Scattered Clouds
1:20 PM 35.6 °F - 35.6 °F 100% 29.74 in 6.2 mi NE 1.2 mph - N/A   Scattered Clouds
1:50 PM 33.8 °F 28.6 °F 33.8 °F 100% 29.74 in 6.2 mi WSW 5.8 mph - N/A   Scattered Clouds
2:20 PM 35.6 °F 30.7 °F 35.6 °F 100% 29.77 in 6.2 mi WNW 5.8 mph - N/A   Scattered Clouds
2:50 PM 35.6 °F 31.7 °F 35.6 °F 100% 29.77 in 6.2 mi NW 4.6 mph - N/A   Scattered Clouds
3:20 PM 35.6 °F 30.7 °F 35.6 °F 100% 29.77 in 6.2 mi WNW 5.8 mph - N/A   Scattered Clouds
3:50 PM 33.8 °F 29.6 °F 33.8 °F 100% 29.77 in 6.2 mi NW 4.6 mph - N/A   Scattered Clouds
4:20 PM 33.8 °F 30.8 °F 33.8 °F 100% 29.80 in 6.2 mi West 3.5 mph - N/A   Partly Cloudy
4:50 PM 32.0 °F 26.4 °F 32.0 °F 100% 29.80 in 6.2 mi WSW 5.8 mph - N/A   Partly Cloudy
5:20 PM 32.0 °F 26.4 °F 32.0 °F 100% 29.80 in 6.2 mi West 5.8 mph - N/A   Partly Cloudy
5:50 PM 30.2 °F 26.7 °F 30.2 °F 100% 29.80 in - SSW 3.5 mph - N/A   Clear
6:20 PM 30.2 °F 25.4 °F 30.2 °F 100% 29.80 in - WNW 4.6 mph - N/A   Clear